This demonstration page uses our WeatherBlox Daily Observations layout. Learn more.

Hourly Observations for January 21, 2015

Temp ( °F °C ) Dew Point ( °F °C ) Humidity (%) Winds ( mph kmh ) Pressure ( in mb ) Visibility ( mi km ) Precip ( " mm )
12:15 am 00:15 Clear 28 -2 23 -5.2 79 79 WNW 6 9 30.24 1024 10 16.0934 0 0
12:35 am 00:35 Clear 29 -1.8 22 -5.3 77 77 WNW 8 13 30.24 1024 10 16.0934 0 0
12:55 am 00:55 Clear 28 -2 23 -5.1 80 80 WNW 8 13 30.24 1024 10 16.0934 0 0
1:15 am 01:15 Clear 28 -2.5 22 -5.4 81 81 WNW 6 9 30.24 1024 10 16.0934 0 0
1:35 am 01:35 Clear 26 -3.2 22 -5.4 85 85 W 8 13 30.27 1025 10 16.0934 0 0
1:55 am 01:55 Clear 28 -2.1 24 -4.7 83 83 WNW 7 11 30.24 1024 10 16.0934 0 0
3:15 am 03:15 Clear 27 -3 23 -5.1 86 86 W 7 11 30.3 1026 10 16.0934 0 0
3:35 am 03:35 Clear 26 -3.2 22 -5.4 85 85 WNW 6 9 30.3 1026 10 16.0934 0 0
3:55 am 03:55 Clear 27 -3 23 -5.2 85 85 WNW 7 11 30.3 1026 10 16.0934 0 0
4:15 am 04:15 Clear 27 -3 23 -5.2 85 85 WNW 7 11 30.3 1026 10 16.0934 0 0
4:35 am 04:35 Clear 27 -3 22 -5.4 84 84 WNW 8 13 30.3 1026 10 16.0934 0 0
4:55 am 04:55 Clear 25 -4.1 21 -6 87 87 WNW 8 13 30.3 1026 10 16.0934 0 0
5:15 am 05:15 Clear 26 -3.5 22 -5.6 86 86 WNW 8 13 30.3 1026 10 16.0934 0 0
5:35 am 05:35 Clear 25 -4.1 21 -6.1 86 86 WNW 6 9 30.3 1026 10 16.0934 0 0
5:55 am 05:55 Clear 24 -4.4 21 -6.3 87 87 WNW 3 6 30.3 1026 10 16.0934 0 0
6:15 am 06:15 Clear 23 -5.1 20 -6.7 89 89 W 5 7 30.36 1028 10 16.0934 0 0
6:35 am 06:35 Clear 24 -4.5 21 -6.3 87 87 WNW 6 9 30.33 1027 10 16.0934 0 0
6:55 am 06:55 Clear 23 -5.1 20 -6.8 88 88 W 5 7 30.36 1028 10 16.0934 0 0
7:15 am 07:15 Clear 22 -5.6 19 -7.1 89 89 W 7 11 30.36 1028 10 16.0934 0 0
7:35 am 07:35 Clear 24 -4.4 21 -6.2 87 87 W 9 15 30.33 1027 10 16.0934 0 0
7:55 am 07:55 Clear 26 -3.6 21 -6.1 83 83 W 9 15 30.33 1027 10 16.0934 0 0
8:15 am 08:15 Sunny 25 -4.1 21 -6.3 85 85 W 8 13 30.36 1028 10 16.0934 0 0
8:35 am 08:35 Sunny 26 -3.5 22 -5.8 84 84 W 13 20 30.36 1028 10 16.0934 0 0
8:55 am 08:55 Sunny 27 -2.8 22 -5.4 83 83 W 12 19 30.36 1028 10 16.0934 0 0
9:15 am 09:15 Sunny 28 -2 23 -4.8 81 81 W 9 15 30.36 1028 10 16.0934 0 0
9:35 am 09:35 Sunny 31 -0.6 25 -4 78 78 WNW 10 17 30.33 1027 10 16.0934 0 0
9:55 am 09:55 Sunny 32 0.1 26 -3.5 77 77 WNW 9 15 30.33 1027 10 16.0934 0 0
10:15 am 10:15 Sunny 34 1.1 26 -3.3 73 73 WNW 10 17 30.36 1028 10 16.0934 0 0
10:35 am 10:35 Sunny 35 1.6 26 -3.3 70 70 W 13 20 30.33 1027 10 16.0934 0 0
10:55 am 10:55 Sunny 36 2.4 26 -3.4 66 66 WNW 10 17 30.33 1027 10 16.0934 0 0
11:15 am 11:15 Sunny 37 3 26 -3.5 63 63 WNW 9 15 30.33 1027 10 16.0934 0 0
11:35 am 11:35 Sunny 39 3.7 25 -4 58 58 WNW 13 20 30.33 1027 10 16.0934 0 0
11:55 am 11:55 Sunny 39 4.1 23 -4.8 53 53 NW 12 19 30.33 1027 10 16.0934 0 0
12:15 pm 12:15 Sunny 39 4.1 23 -4.9 52 52 NW 10 17 30.33 1027 10 16.0934 0 0
12:35 pm 12:35 Sunny 40 4.5 22 -5.3 49 49 NW 13 20 30.27 1025 10 16.0934 0 0
12:55 pm 12:55 Sunny 40 4.5 22 -5.3 49 49 NW 10 17 30.27 1025 10 16.0934 0 0
1:15 pm 13:15 Sunny 41 4.8 23 -5.1 49 49 NW 12 19 30.27 1025 10 16.0934 0 0
1:35 pm 13:35 Sunny 41 5 23 -5 49 49 NNW 10 17 30.27 1025 10 16.0934 0 0
1:55 pm 13:55 Sunny 41 5.1 23 -5.2 48 48 NW 8 13 30.24 1024 10 16.0934 0 0
2:15 pm 14:15 Sunny 41 5.2 22 -5.5 46 46 WNW 8 13 30.24 1024 10 16.0934 0 0
2:35 pm 14:35 Mostly Cloudy 41 5.2 21 -6.2 44 44 NNW 10 17 30.24 1024 10 16.0934 0 0
2:55 pm 14:55 Partly Cloudy 41 4.9 21 -6.2 45 45 NW 9 15 30.24 1024 10 16.0934 0 0
3:15 pm 15:15 Partly Cloudy 40 4.6 21 -6.2 46 46 NW 8 13 30.24 1024 10 16.0934 0 0
3:35 pm 15:35 Mostly Cloudy 40 4.6 20 -6.4 45 45 NW 8 13 30.27 1025 10 16.0934 0 0
3:55 pm 15:55 Mostly Cloudy 40 4.7 20 -6.4 45 45 NW 8 13 30.27 1025 10 16.0934 0 0
4:15 pm 16:15 Cloudy 40 4.7 20 -6.5 44 44 NNW 8 13 30.27 1025 10 16.0934 0 0
4:35 pm 16:35 Cloudy 39 3.7 22 -5.4 52 52 N 12 19 30.3 1026 10 16.0934 0 0
4:55 pm 16:55 Cloudy 38 3.6 22 -5.5 52 52 N 8 13 30.3 1026 10 16.0934 0 0
5:15 pm 17:15 Cloudy 37 3 22 -5.4 54 54 N 12 19 30.33 1027 10 16.0934 0 0
5:35 pm 17:35 Cloudy 36 2.2 22 -5.5 57 57 N 9 15 30.33 1027 10 16.0934 0 0
5:55 pm 17:55 Cloudy 35 1.5 22 -5.8 59 59 N 9 15 30.33 1027 10 16.0934 0 0
6:15 pm 18:15 Partly Cloudy 33 0.4 21 -6 63 63 N 9 15 30.36 1028 10 16.0934 0 0
6:35 pm 18:35 Clear 32 -0.2 21 -6.1 65 65 N 8 13 30.39 1029 10 16.0934 0 0
6:55 pm 18:55 Clear 32 -0.1 21 -6.1 64 64 N 9 15 30.39 1029 10 16.0934 0 0
7:15 pm 19:15 Clear 30 -1 21 -6.2 68 68 NNW 7 11 30.42 1030 10 16.0934 0 0
7:35 pm 19:35 Clear 30 -1.1 21 -6 70 70 NNW 8 13 30.45 1031 10 16.0934 0 0
7:55 pm 19:55 Partly Cloudy 32 -0.2 24 -4.5 73 73 N 10 17 30.42 1030 10 16.0934 0 0
8:15 pm 20:15 Cloudy 33 0.5 23 -4.9 67 67 N 14 22 30.45 1031 10 16.0934 0 0
8:35 pm 20:35 Cloudy 33 0.3 22 -5.3 66 66 N 12 19 30.45 1031 10 16.0934 0 0
8:55 pm 20:55 Cloudy 32 0 23 -5 69 69 N 12 19 30.45 1031 10 16.0934 0 0
9:15 pm 21:15 Mostly Cloudy 31 -0.6 21 -5.9 68 68 N 9 15 30.48 1032 10 16.0934 0 0
9:55 pm 21:55 Mostly Cloudy 31 -0.5 21 -5.9 67 67 N 9 15 30.45 1031 10 16.0934 0 0
10:15 pm 22:15 Cloudy 31 -0.5 22 -5.8 68 68 N 9 15 30.45 1031 10 16.0934 0 0
10:35 pm 22:35 Cloudy 31 -0.6 22 -5.7 69 69 N 8 13 30.48 1032 10 16.0934 0 0
10:55 pm 22:55 Cloudy 31 -0.5 22 -5.8 68 68 N 8 13 30.45 1031 10 16.0934 0 0
11:15 pm 23:15 Cloudy 31 -0.5 21 -5.9 67 67 N 7 11 30.45 1031 10 16.0934 0 0
11:35 pm 23:35 Cloudy 31 -0.6 21 -6 67 67 NNW 7 11 30.48 1032 10 16.0934 0 0
11:55 pm 23:55 Cloudy 30 -1.2 21 -5.9 71 71 NNW 5 7 30.48 1032 10 16.0934 0 0

Powered by AerisWeather